Location: Bukit Lungun
(2.6833°N, 113.9667°E)
Time: 11:34:44
(UTC+00:00)

CZ-4C R/B - Pass Details

Date: 02 March 2021
Orbit: 406 x 487 km, 97.7° (Epoch: 20 April)

Event Time Altitude Azimuth Distance (km) Brightness Sun altitude
Rises 21:26:05 0° 177° (S) 2,328 6.7 -17.7°
Reaches altitude 10° 21:28:05 10° 182° (S) 1,470 5.5 -17.2°
Maximum altitude 21:31:08 50° 259° (W) 530 2.8 -16.4°
Enters shadow 21:32:13 33° 315° (NW) 720 3.5 -16.2°
